US-0125 weather

Pavilion Heliport
Virginia Beach, Virginia, United States

Public forecast

Using degrees Fahrenheit for public forecast. Weather courtesy of forecast.io.

METAR (pilot weather report)

Closest report is Oceana Naval Air Station, 2.7 nm (5.0 km) SW. Retrieved 2019/05/22 08:56 UTC (28 minutes ago):

KNTU 220856Z 00000KT 10SM FEW300 13/12 A3015 RMK AO2 SLP212 T01330117 51009

TAF (pilot weather forecast)

Forecast is more than 12 hours old.

Closest forecast is Oceana Naval Air Station, 2.7 nm (5.0 km) SW. Retrieved 2014/02/21 23:36 UTC (5 years ago):

TAF COR KNTU 202300Z 2023/2123 18014KT 9999 SCT010 SCT030 BKN150 BKN200 641408 QNH3001INS BECMG 2104/2106 20015G20KT 8000 BR BKN020 OVC040 600000 QNH2993INS TEMPO 2107/2112 1600 BR BKN010 OVC030 BECMG 2112/2114 18023G28KT 4800 -SHRA BR BKN010 OVC020 QNH2984INS TEMPO 2118/2123 20028G35KT 1600 TSRA BR OVC005 TX12/2110Z TN15/2119Z TAF COR 0215 FN20008